[[{"header":{"parameterUnit":"m.s-1","parameterCategory":1,"la1":30.2991,"la2":30.254,"lo1":-89.0895,"lo2":-89.0444,"dy":0.0017,"dx":0.0017,"nx":28,"ny":28,"refTime":"2024-07-07T21:00:00:Z","depth":0,"parameterNumber":2,"parameterNumberName":"U-component_of_WINDS"},"data":[0,0,0,0,0,0,0,0,0,0,0,0,0,0,0,0,0,0,0,0,0,0,0,0,0,0,0,0,0,0,0,0,0,0,0,0,0,0,0,0,0,0,0,0,0,0,0,0,0,0,0,0,0,0,0,0,0,0,5.1187,5.1188,0,5.1266,5.1267,5.1268,5.1211,5.1208,5.1206,5.1203,5.1284,5.1288,5.1293,0,0,0,0,0,0,0,0,0,0,0,0,0,5.0986,5.099,5.1187,5.1188,5.1189,5.1266,5.1267,5.1268,5.1211,5.1208,5.1205,5.1202,5.1282,5.1288,5.1293,0,0,0,0,0,0,0,0,0,0,0,0,0,5.107,5.0991,5.1187,5.117,5.1169,5.1266,5.1267,5.1269,5.1212,5.1208,5.1204,5.1201,5.1281,5.1287,5.1294,5.1412,0,0,5.1315,5.1318,0,0,0,0,0,0,0,0,5.1065,5.1077,5.1171,5.1171,5.117,5.1225,5.1226,5.1317,5.1213,5.1196,5.1203,5.1199,5.1267,5.1275,5.1298,5.1416,5.1419,5.1315,5.1319,5.1322,5.1324,0,0,0,0,0,0,0,5.106,5.1074,5.1218,5.1173,5.1172,5.1158,5.1166,5.1243,5.1252,5.1197,5.1193,5.1203,5.1266,5.1292,5.13,5.142,5.1315,5.1321,5.1325,5.1328,5.1638,5.1642,0,0,0,0,0,0,5.1055,5.1069,5.1216,5.1221,5.1107,5.1165,5.1173,5.1211,5.1251,5.1253,5.1206,5.12,5.1282,5.1292,5.1302,5.1442,5.1322,5.1329,5.1332,5.1634,5.1639,5.1643,0,0,0,0,0,0,5.1051,5.1069,5.1213,5.1144,5.1161,5.1172,5.1215,5.1215,5.124,5.1258,5.1259,5.123,5.1279,5.1293,5.1385,5.1444,5.1332,5.1338,5.1629,5.1635,5.1641,5.1723,0,0,0,0,0,0,5.1046,5.1068,5.1113,5.1145,5.1165,5.1294,5.1219,5.1219,5.1252,5.1245,5.1281,5.1283,5.1277,5.1375,5.1392,5.1451,5.1343,5.1623,5.1632,5.1639,5.1715,5.1731,5.1745,0,0,0,0,0,5.1039,5.1133,5.1115,5.1133,5.1221,5.1298,5.1309,5.13,5.1257,5.1302,5.1313,5.1282,5.1435,5.1385,5.1403,5.1466,5.162,5.1629,5.1638,5.1708,5.1728,5.1744,0,0,0,0,0,0,5.1106,5.1137,5.1118,5.1225,5.1259,5.1288,5.1344,5.1322,5.1369,5.136,5.1347,5.1356,5.1453,5.1469,5.1412,5.1581,5.152,5.1534,5.1567,5.1586,5.1601,5.1594,5.1349,0,0,0,0,0,5.1134,5.1194,5.1217,5.1309,5.1327,5.1333,5.1366,5.1357,5.1392,5.1406,5.1424,5.1459,5.1514,5.1551,5.1604,5.1717,5.1724,5.1769,5.1784,5.1797,5.1808,5.1868,5.1888,5.1674,5.1674,5.1674,0,0,5.1191,5.1215,5.1253,5.1323,5.1349,5.141,5.1346,5.1414,5.1459,5.1416,5.1503,5.1519,5.1557,5.166,5.1706,5.1676,5.1869,5.1809,5.1818,5.1823,5.188,5.19,5.1918,5.168,5.1679,5.1678,0,0,5.1326,5.1351,5.143,5.1457,5.1497,5.15,5.1519,5.1552,5.156,5.1648,5.1616,5.1671,5.1767,5.1795,5.1822,5.1969,5.1942,5.1987,5.2065,5.2124,5.2141,5.2155,5.2207,5.2225,5.1998,5.1999,5.1999,0,5.1392,5.1484,5.1474,5.1544,5.1576,5.154,5.162,5.1647,5.1701,5.1723,5.1689,5.181,5.1833,5.1942,5.1977,5.2001,5.2022,5.1982,5.2139,5.2154,5.2168,5.2216,5.2236,5.2004,5.2003,5.2003,5.2002,0,5.1562,5.1627,5.1686,5.1739,5.1778,5.1853,5.1854,5.1894,5.1882,5.1889,5.1979,5.2006,5.2062,5.2088,5.2077,5.2195,5.2175,5.2141,5.2079,5.2193,5.2239,5.2257,5.2011,5.2009,5.2008,5.2006,0,0,5.1741,5.1788,5.181,5.1834,5.1875,5.1924,5.1998,5.2054,5.2088,5.2127,5.2187,5.2271,5.2239,5.2269,5.2261,5.2313,5.2426,5.2272,5.2273,5.2298,5.2557,5.2582,5.2604,5.2409,5.2413,5.2416,5.2554,0,5.1877,5.2004,5.1998,5.2117,5.2176,5.2143,5.2207,5.2239,5.2248,5.2299,5.2309,5.2367,5.2322,5.234,5.239,5.2402,5.2478,5.2392,5.2464,5.2467,5.2454,5.2628,5.2654,5.2782,5.2572,5.2575,5.2577,0,5.2052,5.2097,5.2223,5.2255,5.2279,5.2337,5.2387,5.2437,5.2472,5.2475,5.251,5.2493,5.2567,5.2505,5.2606,5.2548,5.2578,5.2588,5.2593,5.2598,5.2527,5.2635,5.2824,5.2842,5.2605,5.2603,5.2601,0,5.2168,5.226,5.2347,5.2368,5.2409,5.245,5.2468,5.25,5.2534,5.2579,5.26,5.2653,5.2681,5.2723,5.272,5.2676,5.2823,5.2761,5.2826,5.2826,5.2857,5.2855,5.3051,5.2879,5.2879,5.2879,5.2878,0,5.2319,5.2397,5.2399,5.2452,5.2538,5.253,5.2615,5.263,5.2659,5.2714,5.269,5.2742,5.2737,5.279,5.2789,5.2872,5.2885,5.2889,5.2887,5.289,5.289,5.2908,5.2898,5.2884,5.2883,5.2882,5.2881,0,5.2462,5.2467,5.2559,5.259,5.2599,5.2661,5.2687,5.2738,5.2745,5.2815,5.2831,5.2842,5.2903,5.2905,5.2975,5.2975,5.3076,5.3065,5.3063,5.3061,5.3126,5.3119,5.3339,5.3366,5.3179,5.3181,5.3182,0,5.2557,5.2616,5.2654,5.2689,5.271,5.2767,5.2802,5.2797,5.2833,5.2879,5.2924,5.2982,5.3028,5.3127,5.3141,5.3195,5.3184,5.3258,5.3192,5.3193,5.3183,5.3179,5.3184,5.327,5.3272,5.3274,5.3275,0,5.2726,5.2725,5.2776,5.2828,5.287,5.2911,5.2948,5.2978,5.2978,5.3021,5.3082,5.3119,5.319,5.3248,5.33,5.3319,5.3297,5.3296,5.3314,5.3316,5.3312,5.3313,5.3096,5.329,5.3289,5.3288,5.3287,5.3286,5.2846,5.2897,5.2931,5.2988,5.3016,5.3052,5.31,5.3114,5.3166,5.3223,5.3218,5.3286,5.332,5.3388,5.3411,5.3465,5.3439,5.3465,5.3472,5.3478,5.3484,5.3305,5.3474,5.3474,5.3474,5.3473,5.3473,0,5.3012,5.3032,5.3085,5.3139,5.3184,5.316,5.3201,5.324,5.33,5.3335,5.3381,5.3452,5.3508,5.3527,5.3582,5.3621,5.3612,5.3635,5.3631,5.3636,5.3504,5.3482,5.3642,5.3641,5.3641,5.3641,5.3641,5.3641,5.3103,5.3187,5.3191,5.3288,5.3308,5.3375,5.34,5.3433,5.346,5.354,5.3587,5.3599,5.3627,5.3684,5.3735,5.3739,5.3759,5.3787,5.3786,5.3662,5.3645,5.3629,5.3609,5.3792,5.3792,5.3913,5.3915,5.3915]},{"header":{"parameterUnit":"m.s-1","parameterCategory":1,"la1":30.2991,"la2":30.254,"lo1":-89.0895,"lo2":-89.0444,"dy":0.0017,"dx":0.0017,"nx":28,"ny":28,"refTime":"2024-07-07T21:00:00:Z","depth":0,"parameterNumber":3,"parameterNumberName":"V-component_of_WINDS"},"data":[0,0,0,0,0,0,0,0,0,0,0,0,0,0,0,0,0,0,0,0,0,0,0,0,0,0,0,0,0,0,0,0,0,0,0,0,0,0,0,0,0,0,0,0,0,0,0,0,0,0,0,0,0,0,0,0,0,0,5.4738,5.4739,0,5.4874,5.4875,5.4877,5.4907,5.4906,5.4905,5.4904,5.5036,5.504,5.5044,0,0,0,0,0,0,0,0,0,0,0,0,0,5.4497,5.4501,5.4737,5.4739,5.4741,5.4873,5.4875,5.4877,5.4907,5.4906,5.4905,5.4904,5.5034,5.504,5.5045,0,0,0,0,0,0,0,0,0,0,0,0,0,5.4614,5.4502,5.4737,5.4772,5.4777,5.4873,5.4875,5.4877,5.4907,5.4906,5.4905,5.4903,5.5033,5.5039,5.5046,5.5114,0,0,5.5066,5.5069,0,0,0,0,0,0,0,0,5.4607,5.4622,5.4765,5.477,5.4775,5.4872,5.4839,5.4957,5.4908,5.4858,5.4904,5.4903,5.4982,5.4993,5.5021,5.5121,5.5126,5.5066,5.507,5.5073,5.5075,0,0,0,0,0,0,0,5.4599,5.4617,5.4791,5.4767,5.4773,5.4779,5.4794,5.4861,5.4926,5.4862,5.4864,5.488,5.4984,5.5015,5.5024,5.5128,5.5066,5.5072,5.5076,5.5079,5.529,5.5292,0,0,0,0,0,0,5.4586,5.461,5.4787,5.4795,5.4686,5.4784,5.4801,5.4842,5.4925,5.4937,5.4882,5.4881,5.5004,5.5017,5.5029,5.5115,5.5073,5.5079,5.5083,5.5288,5.529,5.5292,0,0,0,0,0,0,5.458,5.4601,5.4781,5.4703,5.4727,5.479,5.4836,5.4846,5.4876,5.494,5.4951,5.4901,5.5003,5.502,5.5093,5.512,5.5082,5.5088,5.5286,5.5289,5.5291,5.5287,0,0,0,0,0,0,5.4573,5.4599,5.4628,5.4704,5.4731,5.4846,5.4838,5.4849,5.4888,5.4889,5.4961,5.4972,5.5004,5.5083,5.51,5.5128,5.5093,5.5284,5.5288,5.5291,5.5285,5.5289,5.5292,0,0,0,0,0,5.4565,5.4619,5.4629,5.465,5.4768,5.4847,5.4862,5.49,5.489,5.4918,5.4959,5.497,5.5114,5.5091,5.511,5.514,5.5283,5.5287,5.529,5.5283,5.5288,5.5292,0,0,0,0,0,0,5.4542,5.463,5.4642,5.4723,5.4778,5.4852,5.4889,5.4904,5.496,5.4958,5.5,5.5016,5.5087,5.5121,5.5093,5.5211,5.5198,5.5206,5.5186,5.5191,5.5195,5.5184,5.5099,0,0,0,0,0,5.4547,5.4606,5.4679,5.4743,5.4771,5.4825,5.4861,5.4885,5.4942,5.4965,5.5011,5.5064,5.5121,5.5158,5.5215,5.529,5.5305,5.532,5.5324,5.5326,5.5332,5.5374,5.5381,5.5305,5.5305,5.5304,0,0,5.4557,5.4612,5.4646,5.474,5.4786,5.4844,5.4844,5.4905,5.4948,5.4973,5.5046,5.5082,5.5144,5.5218,5.5253,5.5249,5.5357,5.5331,5.5333,5.5337,5.5378,5.5385,5.5392,5.5307,5.5307,5.5306,0,0,5.4604,5.4653,5.4712,5.4758,5.4827,5.4863,5.4877,5.495,5.4975,5.505,5.507,5.512,5.5218,5.5261,5.5296,5.536,5.5371,5.5377,5.5396,5.5436,5.5442,5.5447,5.5469,5.5477,5.5383,5.5383,5.5383,0,5.4607,5.4698,5.474,5.4801,5.4841,5.4869,5.4928,5.4969,5.5052,5.5078,5.5072,5.5197,5.524,5.5325,5.5341,5.5368,5.5384,5.5369,5.5438,5.5444,5.545,5.5471,5.5479,5.5383,5.5383,5.5383,5.5383,0,5.4697,5.476,5.4799,5.4881,5.4926,5.4985,5.5034,5.5073,5.5094,5.5129,5.5204,5.5257,5.5325,5.5347,5.5366,5.5434,5.5429,5.543,5.5418,5.5456,5.5477,5.5486,5.5383,5.5383,5.5383,5.5383,0,0,5.4734,5.484,5.4853,5.4891,5.4969,5.5017,5.5077,5.5146,5.5178,5.5234,5.5284,5.5367,5.5369,5.5408,5.5433,5.5468,5.5514,5.5465,5.5466,5.5471,5.5591,5.5589,5.5598,5.5522,5.5524,5.5525,5.5585,0,5.479,5.4901,5.4941,5.5031,5.5088,5.5116,5.5168,5.522,5.5255,5.5307,5.5344,5.5402,5.5401,5.5425,5.5461,5.5501,5.5538,5.5497,5.5567,5.5569,5.555,5.5609,5.5607,5.5661,5.5594,5.5595,5.5596,0,5.4871,5.4931,5.5028,5.5099,5.5125,5.5171,5.5237,5.5287,5.5346,5.5369,5.5413,5.5436,5.5497,5.5482,5.5566,5.5537,5.5568,5.5592,5.5595,5.5602,5.5584,5.5616,5.5679,5.5687,5.5609,5.5608,5.5607,0,5.4887,5.4991,5.5063,5.5094,5.5179,5.5211,5.5248,5.5306,5.5345,5.5401,5.5427,5.5489,5.5522,5.5569,5.5606,5.5592,5.5687,5.5675,5.5705,5.5704,5.5723,5.5721,5.5791,5.5744,5.5744,5.5744,5.5744,0,5.4945,5.5003,5.5071,5.5115,5.518,5.5224,5.5286,5.5324,5.5375,5.5425,5.5452,5.5498,5.5545,5.5596,5.5626,5.5691,5.5705,5.5724,5.5731,5.5721,5.5719,5.5741,5.5738,5.5746,5.5746,5.5745,5.5745,0,5.4973,5.5022,5.5101,5.5176,5.5196,5.5241,5.5304,5.5346,5.5383,5.5445,5.5462,5.5518,5.558,5.5623,5.5701,5.5721,5.5791,5.5797,5.5771,5.5775,5.5802,5.5799,5.5888,5.5901,5.5847,5.5847,5.5847,0,5.5007,5.5053,5.5133,5.517,5.5207,5.5265,5.5306,5.535,5.539,5.5462,5.5495,5.5559,5.5613,5.571,5.5756,5.5816,5.5824,5.5851,5.5833,5.5821,5.5823,5.582,5.5824,5.5853,5.5853,5.5854,5.5854,0,5.5061,5.5083,5.5142,5.5208,5.5256,5.531,5.5364,5.5392,5.5445,5.5489,5.5554,5.5596,5.5677,5.574,5.5804,5.5839,5.5855,5.586,5.587,5.586,5.5843,5.5852,5.5778,5.5857,5.5857,5.5857,5.5856,5.5856,5.5093,5.5134,5.5198,5.5262,5.5308,5.5358,5.5401,5.5444,5.55,5.5571,5.5594,5.5661,5.5718,5.5807,5.5843,5.5894,5.5892,5.5907,5.591,5.5913,5.5912,5.5835,5.5906,5.5906,5.5906,5.5906,5.5906,0,5.5148,5.5191,5.5249,5.5325,5.5375,5.5388,5.5449,5.5489,5.5548,5.5602,5.5655,5.5729,5.579,5.5841,5.5904,5.5935,5.5944,5.595,5.5947,5.5955,5.5911,5.5896,5.5942,5.5942,5.5942,5.5942,5.5942,5.5942,5.5182,5.5253,5.5283,5.5376,5.5418,5.5486,5.5519,5.5564,5.5607,5.569,5.5742,5.5776,5.5828,5.5895,5.5951,5.5964,5.5985,5.599,5.6004,5.5962,5.5958,5.5954,5.594,5.5994,5.5994,5.6044,5.6044,5.6045]}]]